This is the latest recevied weather packets stored in our database for station/object KO4LCK. If no packets are shown the sender has not sent any weather packets the latest 10 day(s).
| Time | Temp. | Humidity | Pressure | Rain* | Wind** | Luminosity | Snow |
|---|---|---|---|---|---|---|---|
| 1788556212 | 36.11° C | 45% | 1015.1 hPa | 0 mm | - | 365 W/m² | - |
| 1788555911 | 36.11° C | 46% | 1015.3 hPa | 0 mm | - | 385 W/m² | - |
| 1788555607 | 36.11° C | 45% | 1015 hPa | 0 mm | - | 384 W/m² | - |
| 1788555302 | 35.56° C | 45% | 1015.4 hPa | 0 mm | - | 440 W/m² | - |
| 1788554999 | 36.11° C | 44% | 1015.1 hPa | 0 mm | - | 164 W/m² | - |
| 1788554694 | 36.67° C | 44% | 1015.3 hPa | 0 mm | - | 159 W/m² | - |
| 1788554390 | 37.22° C | 44% | 1015.4 hPa | 0 mm | - | 471 W/m² | - |
| 1788554086 | 37.78° C | 41% | 1015.2 hPa | 0 mm | - | 565 W/m² | - |
| 1788553782 | 37.22° C | 45% | 1015.1 hPa | 0 mm | - | 556 W/m² | - |
| 1788553478 | 37.22° C | 43% | 1015.3 hPa | 0 mm | - | 564 W/m² | - |
| 1788553174 | 37.22° C | 44% | 1015.4 hPa | 0 mm | - | 572 W/m² | - |
| 1788552869 | 36.11° C | 49% | 1015.3 hPa | 0 mm | - | 580 W/m² | - |
| 1788552564 | 34.44° C | 49% | 1015.4 hPa | 0 mm | - | 584 W/m² | - |
| 1788552262 | 33.89° C | 69% | 1015.7 hPa | 0 mm | - | 588 W/m² | - |
| 1788551958 | 32.78° C | 62% | 1015.6 hPa | 0 mm | - | 165 W/m² | - |
| 1788551656 | 33.89° C | 66% | 1016 hPa | 0 mm | - | 182 W/m² | - |
| 1788551356 | 35.56° C | 60% | 1015.9 hPa | 0 mm | - | 154 W/m² | - |
| 1788551055 | 35.56° C | 59% | 1016.3 hPa | 0 mm | - | 434 W/m² | - |
| 1788550751 | 36.11° C | 47% | 1016.1 hPa | 0 mm | - | 155 W/m² | - |
| 1788550446 | 36.67° C | 47% | 1016.1 hPa | 0 mm | - | 149 W/m² | - |
| 1788550141 | 36.67° C | 47% | 1016.1 hPa | 0 mm | - | 201 W/m² | - |
| 1788549837 | 36.67° C | 46% | 1016.5 hPa | 0 mm | - | 470 W/m² | - |
| 1788549544 | 35° C | 51% | 1016.7 hPa | 0 mm | - | 720 W/m² | - |
| 1788549229 | 34.44° C | 52% | 1016.5 hPa | 0 mm | - | 717 W/m² | - |
| 1788548926 | 34.44° C | 56% | 1016.7 hPa | 0 mm | - | 157 W/m² | - |
* Rain latest hour (hover to see other rain measurements)
** Current wind speed in m/s (hover to see current wind gust speed)